When you browse on this site, cookies collect data to enhance your experience and personalize the content and advertising you see.
Visit our Privacy Policy to learn more. By continuing to use the site, you agree to this use of cookies and data.
  • In Österreich
  • Länderverzeichnis
  • Für 7 Tage
  • Wassertemperatur
  • Wetterkarte
  • News
  • Widgets
  • user-avatar
    Anmelden

    Stündliche Wetter Sofia

    Heute, 24 Oktober, Donnerstag

    Zeit Temperatur Niederschläge Wind Luftdruck Luftfeuchtigkeit
    00:00 +14°C° 0 mm 1 m/S 714 mmHg 47%
    01:00 +14°C° 0 mm 1 m/S 714 mmHg 48%
    02:00 +13°C° 0 mm 1 m/S 714 mmHg 48%
    03:00 +12°C° 0 mm 0 m/S 714 mmHg 49%
    04:00 +11°C° 0 mm 0 m/S 713 mmHg 50%
    05:00 +11°C° 0 mm 0 m/S 713 mmHg 50%
    06:00 +12°C° 0 mm 0 m/S 713 mmHg 49%
    07:00 +12°C° 0 mm 0 m/S 714 mmHg 48%
    08:00 +13°C° 0 mm 0 m/S 714 mmHg 47%
    09:00 +16°C° 0 mm 0 m/S 714 mmHg 41%
    10:00 +18°C° 0 mm 0 m/S 714 mmHg 35%
    11:00 +23°C° 0 mm 1 m/S 714 mmHg 29%
    12:00 +24°C° 0 mm 1 m/S 714 mmHg 26%
    13:00 +25°C° 0 mm 1 m/S 714 mmHg 24%
    14:00 +26°C° 0 mm 1 m/S 713 mmHg 22%
    15:00 +25°C° 0 mm 1 m/S 713 mmHg 26%
    16:00 +23°C° 0 mm 1 m/S 712 mmHg 30%
    17:00 +21°C° 0 mm 1 m/S 712 mmHg 33%
    18:00 +20°C° 0 mm 1 m/S 712 mmHg 37%
    19:00 +18°C° 0 mm 1 m/S 712 mmHg 40%
    20:00 +16°C° 0 mm 1 m/S 712 mmHg 43%
    21:00 +15°C° 0 mm 1 m/S 712 mmHg 45%
    22:00 +15°C° 0 mm 1 m/S 712 mmHg 46%
    23:00 +14°C° 0 mm 1 m/S 712 mmHg 48%

    Morgen, 25 Oktober, Freitag

    Zeit Temperatur Niederschläge Wind Luftdruck Luftfeuchtigkeit
    00:00 +14°C° 0 mm 1 m/S 712 mmHg 50%
    01:00 +13°C° 0 mm 1 m/S 712 mmHg 51%
    02:00 +13°C° 0 mm 1 m/S 712 mmHg 53%
    03:00 +11°C° 0 mm 0 m/S 712 mmHg 54%
    04:00 +11°C° 0 mm 0 m/S 712 mmHg 55%
    05:00 +11°C° 0 mm 0 m/S 711 mmHg 56%
    06:00 +12°C° 0 mm 0 m/S 712 mmHg 55%
    07:00 +12°C° 0 mm 0 m/S 712 mmHg 54%
    08:00 +13°C° 0 mm 0 m/S 712 mmHg 52%
    09:00 +16°C° 0 mm 0 m/S 713 mmHg 45%
    10:00 +18°C° 0 mm 0 m/S 713 mmHg 38%
    11:00 +21°C° 0 mm 0 m/S 714 mmHg 31%
    12:00 +24°C° 0 mm 1 m/S 713 mmHg 29%
    13:00 +25°C° 0 mm 1 m/S 713 mmHg 26%
    14:00 +26°C° 0 mm 1 m/S 713 mmHg 24%
    15:00 +24°C° 0 mm 1 m/S 713 mmHg 27%
    16:00 +23°C° 0 mm 1 m/S 713 mmHg 31%
    17:00 +21°C° 0 mm 1 m/S 713 mmHg 35%
    18:00 +20°C° 0 mm 1 m/S 713 mmHg 39%
    19:00 +18°C° 0 mm 1 m/S 713 mmHg 42%
    20:00 +15°C° 0 mm 1 m/S 713 mmHg 46%
    21:00 +15°C° 0 mm 1 m/S 714 mmHg 47%
    22:00 +14°C° 0 mm 1 m/S 714 mmHg 48%
    23:00 +13°C° 0 mm 0 m/S 714 mmHg 49%

    übermorgen, 26 Oktober, Samstag

    Zeit Temperatur Niederschläge Wind Luftdruck Luftfeuchtigkeit
    00:00 +12°C° 0 mm 0 m/S 714 mmHg 50%
    01:00 +12°C° 0 mm 0 m/S 714 mmHg 51%
    02:00 +12°C° 0 mm 0 m/S 714 mmHg 52%
    03:00 +11°C° 0 mm 0 m/S 714 mmHg 53%
    04:00 +11°C° 0 mm 0 m/S 714 mmHg 54%
    05:00 +11°C° 0 mm 0 m/S 715 mmHg 55%
    06:00 +11°C° 0 mm 0 m/S 715 mmHg 53%
    07:00 +12°C° 0 mm 0 m/S 715 mmHg 52%
    08:00 +13°C° 0 mm 0 m/S 715 mmHg 51%
    09:00 +15°C° 0 mm 0 m/S 716 mmHg 44%
    10:00 +18°C° 0 mm 0 m/S 716 mmHg 36%
    11:00 +22°C° 0 mm 1 m/S 717 mmHg 29%
    12:00 +23°C° 0 mm 1 m/S 717 mmHg 27%
    13:00 +24°C° 0 mm 1 m/S 716 mmHg 25%
    14:00 +25°C° 0 mm 1 m/S 716 mmHg 23%
    15:00 +24°C° 0 mm 1 m/S 716 mmHg 26%
    16:00 +22°C° 0 mm 1 m/S 715 mmHg 30%
    17:00 +21°C° 0 mm 1 m/S 715 mmHg 33%
    18:00 +19°C° 0 mm 1 m/S 715 mmHg 36%
    19:00 +18°C° 0 mm 1 m/S 715 mmHg 39%
    20:00 +14°C° 0 mm 0 m/S 715 mmHg 42%
    21:00 +14°C° 0 mm 0 m/S 715 mmHg 43%
    22:00 +13°C° 0 mm 0 m/S 715 mmHg 44%
    23:00 +13°C° 0 mm 0 m/S 715 mmHg 44%

    27 Oktober, Sonntag

    Zeit Temperatur Niederschläge Wind Luftdruck Luftfeuchtigkeit
    00:00 +12°C° 0 mm 0 m/S 715 mmHg 45%
    01:00 +12°C° 0 mm 0 m/S 715 mmHg 45%
    02:00 +11°C° 0 mm 0 m/S 715 mmHg 46%
    03:00 +11°C° 0 mm 0 m/S 715 mmHg 46%
    04:00 +11°C° 0 mm 0 m/S 714 mmHg 46%
    05:00 +11°C° 0 mm 0 m/S 714 mmHg 47%
    06:00 +11°C° 0 mm 0 m/S 714 mmHg 46%
    07:00 +12°C° 0 mm 0 m/S 714 mmHg 44%
    08:00 +12°C° 0 mm 0 m/S 715 mmHg 43%
    09:00 +15°C° 0 mm 0 m/S 715 mmHg 37%
    10:00 +18°C° 0 mm 0 m/S 715 mmHg 32%
    11:00 +21°C° 0 mm 0 m/S 716 mmHg 26%
    12:00 +22°C° 0 mm 0 m/S 715 mmHg 24%
    13:00 +23°C° 0 mm 0 m/S 715 mmHg 21%
    14:00 +24°C° 0 mm 0 m/S 714 mmHg 19%
    15:00 +22°C° 0 mm 0 m/S 714 mmHg 23%
    16:00 +20°C° 0 mm 0 m/S 713 mmHg 26%
    17:00 +19°C° 0 mm 0 m/S 713 mmHg 29%
    18:00 +17°C° 0 mm 0 m/S 713 mmHg 32%
    19:00 +16°C° 0 mm 0 m/S 712 mmHg 34%
    20:00 +14°C° 0 mm 0 m/S 712 mmHg 37%
    21:00 +14°C° 0 mm 0 m/S 712 mmHg 38%
    22:00 +13°C° 0 mm 0 m/S 712 mmHg 39%
    23:00 +13°C° 0 mm 0 m/S 712 mmHg 40%

    28 Oktober, Montag

    Zeit Temperatur Niederschläge Wind Luftdruck Luftfeuchtigkeit
    00:00 +12°C° 0 mm 0 m/S 712 mmHg 40%
    01:00 +12°C° 0 mm 0 m/S 711 mmHg 41%
    02:00 +11°C° 0 mm 0 m/S 711 mmHg 42%
    03:00 +11°C° 0 mm 0 m/S 711 mmHg 42%
    04:00 +11°C° 0 mm 0 m/S 711 mmHg 43%
    05:00 +10°C° 0 mm 0 m/S 710 mmHg 44%
    06:00 +11°C° 0 mm 0 m/S 710 mmHg 43%
    07:00 +11°C° 0 mm 0 m/S 710 mmHg 42%
    08:00 +12°C° 0 mm 0 m/S 710 mmHg 42%
    09:00 +15°C° 0 mm 0 m/S 710 mmHg 36%
    10:00 +17°C° 0 mm 0 m/S 710 mmHg 31%
    11:00 +22°C° 0 mm 1 m/S 711 mmHg 25%
    12:00 +23°C° 0 mm 1 m/S 710 mmHg 23%
    13:00 +24°C° 0 mm 1 m/S 710 mmHg 21%
    14:00 +25°C° 0 mm 1 m/S 710 mmHg 20%
    15:00 +23°C° 0 mm 1 m/S 709 mmHg 23%
    16:00 +20°C° 0 mm 0 m/S 709 mmHg 26%
    17:00 +18°C° 0 mm 0 m/S 708 mmHg 29%
    18:00 +17°C° 0 mm 0 m/S 708 mmHg 32%
    19:00 +15°C° 0 mm 0 m/S 708 mmHg 34%
    20:00 +14°C° 0 mm 0 m/S 708 mmHg 36%
    21:00 +14°C° 0 mm 0 m/S 708 mmHg 38%
    22:00 +13°C° 0 mm 0 m/S 708 mmHg 39%
    23:00 +12°C° 0 mm 0 m/S 709 mmHg 40%

    29 Oktober, Dienstag

    Zeit Temperatur Niederschläge Wind Luftdruck Luftfeuchtigkeit
    00:00 +12°C° 0 mm 0 m/S 708 mmHg 41%
    01:00 +12°C° 0 mm 0 m/S 708 mmHg 43%
    02:00 +11°C° 0 mm 0 m/S 708 mmHg 44%
    03:00 +11°C° 0 mm 0 m/S 708 mmHg 45%
    04:00 +10°C° 0 mm 0 m/S 708 mmHg 46%
    05:00 +10°C° 0 mm 0 m/S 708 mmHg 47%
    06:00 +10°C° 0 mm 0 m/S 708 mmHg 47%
    07:00 +11°C° 0 mm 0 m/S 709 mmHg 47%
    08:00 +11°C° 0 mm 0 m/S 709 mmHg 46%
    09:00 +14°C° 0 mm 0 m/S 709 mmHg 40%
    10:00 +19°C° 0 mm 1 m/S 709 mmHg 35%
    11:00 +21°C° 0 mm 1 m/S 710 mmHg 29%
    12:00 +22°C° 0 mm 1 m/S 710 mmHg 26%
    13:00 +23°C° 0 mm 1 m/S 709 mmHg 24%
    14:00 +24°C° 0 mm 1 m/S 709 mmHg 21%
    15:00 +22°C° 0 mm 1 m/S 709 mmHg 24%
    16:00 +21°C° 0 mm 1 m/S 708 mmHg 27%
    17:00 +17°C° 0 mm 0 m/S 708 mmHg 30%
    18:00 +16°C° 0 mm 0 m/S 708 mmHg 33%
    19:00 +14°C° 0 mm 0 m/S 708 mmHg 36%
    20:00 +13°C° 0 mm 0 m/S 708 mmHg 38%
    21:00 +13°C° 0 mm 0 m/S 709 mmHg 39%
    22:00 +12°C° 0 mm 0 m/S 709 mmHg 40%
    23:00 +12°C° 0 mm 0 m/S 709 mmHg 41%

    30 Oktober, Mittwoch

    Zeit Temperatur Niederschläge Wind Luftdruck Luftfeuchtigkeit
    00:00 +11°C° 0 mm 0 m/S 709 mmHg 42%
    01:00 +11°C° 0 mm 0 m/S 709 mmHg 43%
    02:00 +10°C° 0 mm 0 m/S 708 mmHg 44%
    03:00 +10°C° 0 mm 0 m/S 708 mmHg 46%
    04:00 +10°C° 0 mm 0 m/S 708 mmHg 47%
    05:00 +10°C° 0 mm 1 m/S 708 mmHg 49%
    06:00 +10°C° 0 mm 0 m/S 708 mmHg 49%
    07:00 +10°C° 0 mm 0 m/S 708 mmHg 48%
    08:00 +11°C° 0 mm 0 m/S 708 mmHg 48%
    09:00 +14°C° 0 mm 1 m/S 709 mmHg 42%
    10:00 +18°C° 0 mm 1 m/S 709 mmHg 36%
    11:00 +21°C° 0 mm 1 m/S 709 mmHg 30%
    12:00 +22°C° 0 mm 1 m/S 709 mmHg 28%
    13:00 +22°C° 0 mm 1 m/S 709 mmHg 25%
    14:00 +23°C° 0 mm 1 m/S 708 mmHg 23%
    15:00 +22°C° 0 mm 1 m/S 708 mmHg 26%
    16:00 +20°C° 0 mm 1 m/S 707 mmHg 29%
    17:00 +17°C° 0 mm 0 m/S 707 mmHg 32%
    18:00 +16°C° 0 mm 0 m/S 707 mmHg 34%
    19:00 +14°C° 0 mm 0 m/S 707 mmHg 36%
    20:00 +14°C° 0 mm 1 m/S 707 mmHg 38%
    21:00 +14°C° 0 mm 1 m/S 707 mmHg 39%
    22:00 +13°C° 0 mm 1 m/S 708 mmHg 41%
    23:00 +13°C° 0 mm 1 m/S 708 mmHg 42%
    Mehr zeigen